[[{"header":{"parameterUnit":"m.s-1","parameterCategory":2,"la1":30.2991,"la2":30.254,"lo1":-89.0895,"lo2":-89.0444,"dy":0.0017,"dx":0.0017,"nx":28,"ny":28,"refTime":"2023-10-06T21:00:00:Z","depth":"0","parameterNumber":2,"parameterNumberName":"U-component_of_CURRENTS"},"data":[0,0,0,0,0,0,0,0,0,0,0,0,0,0,0,0,0,0,0,0,0,0,0,0,0,0,0,0,0,0,0,0,0,0,0,0,0,0,0,0,0,0,0,0,0,0,0,0,0,0,0,0,0,0,0,0,0,0,-0.276,-0.2761,0,-0.2807,-0.2807,-0.2807,-0.2714,-0.2711,-0.2709,-0.2707,-0.2645,-0.2645,-0.2645,0,0,0,0,0,0,0,0,0,0,0,0,0,-0.261,-0.2612,-0.276,-0.2761,-0.2763,-0.2807,-0.2807,-0.2806,-0.2714,-0.2711,-0.2709,-0.2706,-0.2645,-0.2645,-0.2645,0,0,0,0,0,0,0,0,0,0,0,0,0,-0.2658,-0.2613,-0.276,-0.273,-0.2728,-0.2807,-0.2807,-0.2806,-0.2714,-0.2711,-0.2708,-0.2705,-0.2644,-0.2645,-0.2645,-0.2711,0,0,-0.2647,-0.2647,0,0,0,0,0,0,0,0,-0.2655,-0.2662,-0.2733,-0.2732,-0.2731,-0.276,-0.2732,-0.2773,-0.2715,-0.2709,-0.2707,-0.2704,-0.2682,-0.268,-0.2682,-0.2708,-0.2705,-0.2647,-0.2647,-0.2647,-0.2647,0,0,0,0,0,0,0,-0.2652,-0.266,-0.2768,-0.2735,-0.2734,-0.2722,-0.2724,-0.2739,-0.2702,-0.2709,-0.2705,-0.2728,-0.2679,-0.2682,-0.268,-0.2705,-0.2647,-0.2647,-0.2647,-0.2647,-0.2715,-0.2717,0,0,0,0,0,0,-0.267,-0.2657,-0.2767,-0.277,-0.2696,-0.2728,-0.2729,-0.2745,-0.2705,-0.2699,-0.2731,-0.2724,-0.2683,-0.2679,-0.2677,-0.2714,-0.2647,-0.2647,-0.2648,-0.2714,-0.2715,-0.2717,0,0,0,0,0,0,-0.2667,-0.2679,-0.2765,-0.2723,-0.2734,-0.2735,-0.2753,-0.2748,-0.2747,-0.2724,-0.2713,-0.2734,-0.268,-0.2677,-0.268,-0.2712,-0.2648,-0.2648,-0.2712,-0.2714,-0.2716,-0.2813,0,0,0,0,0,0,-0.2662,-0.2677,-0.2694,-0.2724,-0.2738,-0.2809,-0.2757,-0.2752,-0.2771,-0.2762,-0.2725,-0.2715,-0.2677,-0.268,-0.2681,-0.2712,-0.2648,-0.271,-0.2713,-0.2716,-0.2808,-0.2819,-0.2828,0,0,0,0,0,-0.2656,-0.2695,-0.2694,-0.2708,-0.2761,-0.2812,-0.2816,-0.2798,-0.2775,-0.2782,-0.2751,-0.2716,-0.2698,-0.2682,-0.2683,-0.2714,-0.2708,-0.2712,-0.2715,-0.2804,-0.2817,-0.2827,0,0,0,0,0,0,-0.2647,-0.2691,-0.269,-0.2742,-0.2775,-0.2799,-0.282,-0.2815,-0.2802,-0.2785,-0.2744,-0.2735,-0.2745,-0.2726,-0.2709,-0.2741,-0.2696,-0.27,-0.2763,-0.2775,-0.2784,-0.2801,-0.2649,0,0,0,0,0,-0.2658,-0.2685,-0.2732,-0.2772,-0.2794,-0.2811,-0.2832,-0.2824,-0.2826,-0.2816,-0.2788,-0.2766,-0.2767,-0.2765,-0.2751,-0.2787,-0.2751,-0.2804,-0.2814,-0.2823,-0.2836,-0.2805,-0.2813,-0.2728,-0.2728,-0.2728,0,0,-0.2671,-0.2698,-0.2716,-0.2771,-0.2793,-0.2836,-0.2811,-0.285,-0.2876,-0.2816,-0.2823,-0.2799,-0.2783,-0.2801,-0.2805,-0.2786,-0.2829,-0.2827,-0.2834,-0.2843,-0.2809,-0.2817,-0.2825,-0.2731,-0.273,-0.273,0,0,-0.27,-0.2733,-0.2757,-0.2797,-0.2845,-0.2861,-0.2878,-0.2903,-0.29,-0.2926,-0.2882,-0.2883,-0.288,-0.2872,-0.2873,-0.294,-0.2877,-0.2931,-0.3002,-0.2972,-0.2978,-0.2983,-0.2951,-0.2952,-0.2941,-0.2941,-0.2941,0,-0.2709,-0.2749,-0.2776,-0.2818,-0.2861,-0.2876,-0.2922,-0.2943,-0.2956,-0.2964,-0.2932,-0.2934,-0.2919,-0.2958,-0.2976,-0.2964,-0.2927,-0.2959,-0.2984,-0.2988,-0.2992,-0.2957,-0.2957,-0.2946,-0.2946,-0.2945,-0.2945,0,-0.275,-0.2794,-0.2823,-0.2872,-0.2921,-0.2968,-0.3016,-0.3033,-0.3033,-0.3043,-0.3066,-0.3048,-0.304,-0.305,-0.304,-0.3072,-0.303,-0.2994,-0.2953,-0.3006,-0.2966,-0.2965,-0.2953,-0.2952,-0.295,-0.2949,0,0,-0.2713,-0.2827,-0.2829,-0.2866,-0.2955,-0.299,-0.3057,-0.3109,-0.3122,-0.3143,-0.3157,-0.3195,-0.3167,-0.3168,-0.315,-0.315,-0.3154,-0.3094,-0.309,-0.3062,-0.3078,-0.2925,-0.2908,-0.311,-0.3111,-0.3111,-0.304,0,-0.2723,-0.2807,-0.2866,-0.2944,-0.2993,-0.3056,-0.3108,-0.3159,-0.3176,-0.3183,-0.3209,-0.3206,-0.322,-0.32,-0.3214,-0.3155,-0.3154,-0.3176,-0.3032,-0.3028,-0.2884,-0.2903,-0.2792,-0.2707,-0.3038,-0.3037,-0.3037,0,-0.2712,-0.2774,-0.2857,-0.297,-0.2995,-0.3042,-0.3109,-0.316,-0.3206,-0.3214,-0.3244,-0.3234,-0.3269,-0.3241,-0.3219,-0.3225,-0.3171,-0.3132,-0.3127,-0.295,-0.2872,-0.2707,-0.2692,-0.2699,-0.3034,-0.3035,-0.3035,0,-0.2628,-0.2756,-0.2817,-0.2863,-0.2992,-0.3028,-0.3084,-0.315,-0.3169,-0.3214,-0.3197,-0.3252,-0.3218,-0.3213,-0.3152,-0.3178,-0.3079,-0.3091,-0.2915,-0.2903,-0.2764,-0.2738,-0.2735,-0.3064,-0.3064,-0.3064,-0.3064,0,-0.2598,-0.2642,-0.2778,-0.2807,-0.2862,-0.2975,-0.3006,-0.3066,-0.3112,-0.3089,-0.3186,-0.3143,-0.32,-0.315,-0.3137,-0.3,-0.3061,-0.2927,-0.2872,-0.2793,-0.2771,-0.2732,-0.2754,-0.3061,-0.3062,-0.3062,-0.3063,0,-0.2494,-0.2587,-0.2657,-0.2788,-0.282,-0.2854,-0.2948,-0.2944,-0.3019,-0.2981,-0.2988,-0.3038,-0.2967,-0.2992,-0.2935,-0.2917,-0.2775,-0.2771,-0.2672,-0.2606,-0.2462,-0.2492,-0.2362,-0.2297,-0.2597,-0.2593,-0.2589,0,-0.246,-0.248,-0.2604,-0.2617,-0.2671,-0.2735,-0.2746,-0.2865,-0.2844,-0.2875,-0.2814,-0.2789,-0.2704,-0.261,-0.2579,-0.2522,-0.255,-0.2387,-0.2428,-0.2432,-0.2428,-0.244,-0.2399,-0.2296,-0.229,-0.2285,-0.2282,0,-0.2368,-0.2399,-0.2436,-0.2474,-0.2496,-0.2529,-0.2553,-0.253,-0.2605,-0.2583,-0.2494,-0.245,-0.2373,-0.2272,-0.2223,-0.2185,-0.2323,-0.2284,-0.2323,-0.2214,-0.2195,-0.211,-0.2378,-0.224,-0.2244,-0.2247,-0.2249,-0.2251,-0.2258,-0.226,-0.2282,-0.2304,-0.2317,-0.2276,-0.2228,-0.2238,-0.2187,-0.212,-0.2164,-0.21,-0.2086,-0.1998,-0.1948,-0.1889,-0.1956,-0.1896,-0.1941,-0.196,-0.1868,-0.2029,-0.1799,-0.18,-0.1802,-0.1803,-0.1804,0,-0.2126,-0.2116,-0.211,-0.2107,-0.204,-0.2114,-0.2044,-0.1958,-0.1826,-0.1856,-0.1789,-0.1814,-0.1719,-0.1752,-0.1703,-0.1628,-0.162,-0.1605,-0.1661,-0.1642,-0.1809,-0.1769,-0.1478,-0.1478,-0.1479,-0.1479,-0.1479,-0.1479,-0.2039,-0.1971,-0.1969,-0.182,-0.1804,-0.1654,-0.1575,-0.1483,-0.1464,-0.141,-0.1484,-0.1588,-0.1639,-0.1727,-0.1638,-0.1551,-0.1543,-0.1433,-0.1489,-0.1697,-0.1731,-0.1764,-0.1734,-0.1441,-0.1441,-0.1273,-0.1272,-0.1272]},{"header":{"parameterUnit":"m.s-1","parameterCategory":2,"la1":30.2991,"la2":30.254,"lo1":-89.0895,"lo2":-89.0444,"dy":0.0017,"dx":0.0017,"nx":28,"ny":28,"refTime":"2023-10-06T21:00:00:Z","depth":"0","parameterNumber":3,"parameterNumberName":"V-component_of_CURRENTS"},"data":[0,0,0,0,0,0,0,0,0,0,0,0,0,0,0,0,0,0,0,0,0,0,0,0,0,0,0,0,0,0,0,0,0,0,0,0,0,0,0,0,0,0,0,0,0,0,0,0,0,0,0,0,0,0,0,0,0,0,-0.0701,-0.07,0,-0.0608,-0.0607,-0.0605,-0.0526,-0.0526,-0.0526,-0.0526,-0.0439,-0.0437,-0.0435,0,0,0,0,0,0,0,0,0,0,0,0,0,-0.0688,-0.0688,-0.0701,-0.07,-0.07,-0.0609,-0.0607,-0.0605,-0.0527,-0.0526,-0.0526,-0.0526,-0.044,-0.0437,-0.0434,0,0,0,0,0,0,0,0,0,0,0,0,0,-0.0647,-0.0689,-0.0701,-0.0656,-0.0651,-0.0609,-0.0607,-0.0604,-0.0527,-0.0526,-0.0526,-0.0526,-0.0441,-0.0437,-0.0434,-0.0419,0,0,-0.0424,-0.0423,0,0,0,0,0,0,0,0,-0.065,-0.0647,-0.0663,-0.0659,-0.0654,-0.0586,-0.057,-0.0545,-0.0527,-0.0566,-0.0526,-0.0526,-0.0494,-0.0486,-0.0458,-0.0414,-0.0411,-0.0424,-0.0422,-0.042,-0.042,0,0,0,0,0,0,0,-0.0653,-0.065,-0.0656,-0.0662,-0.0657,-0.0599,-0.0593,-0.0564,-0.0526,-0.0562,-0.0558,-0.056,-0.049,-0.0461,-0.0456,-0.0409,-0.0424,-0.0421,-0.0419,-0.0418,-0.0315,-0.0314,0,0,0,0,0,0,-0.0687,-0.0653,-0.0659,-0.0654,-0.066,-0.06,-0.0593,-0.0601,-0.0526,-0.0517,-0.0561,-0.0557,-0.0467,-0.0459,-0.0452,-0.0424,-0.0421,-0.0417,-0.0416,-0.0316,-0.0315,-0.0314,0,0,0,0,0,0,-0.0687,-0.0688,-0.0663,-0.0657,-0.0651,-0.0603,-0.0611,-0.06,-0.0576,-0.0527,-0.0515,-0.055,-0.0466,-0.0457,-0.0414,-0.0421,-0.0416,-0.0413,-0.0317,-0.0315,-0.0314,-0.0372,0,0,0,0,0,0,-0.0687,-0.0689,-0.0704,-0.066,-0.0653,-0.0648,-0.0611,-0.0598,-0.0581,-0.0576,-0.0514,-0.0505,-0.0466,-0.0419,-0.0411,-0.0416,-0.041,-0.0318,-0.0316,-0.0315,-0.0371,-0.0373,-0.0375,0,0,0,0,0,-0.0687,-0.0706,-0.0705,-0.0706,-0.0676,-0.0649,-0.0639,-0.0597,-0.0582,-0.0574,-0.0519,-0.0507,-0.0404,-0.0416,-0.0406,-0.0411,-0.0318,-0.0316,-0.0315,-0.037,-0.0373,-0.0375,0,0,0,0,0,0,-0.0707,-0.07,-0.0697,-0.0714,-0.0693,-0.0639,-0.0633,-0.0607,-0.0556,-0.0549,-0.0496,-0.0483,-0.0448,-0.0417,-0.0431,-0.0373,-0.036,-0.0356,-0.0406,-0.0407,-0.0409,-0.0425,-0.0408,0,0,0,0,0,-0.0725,-0.0734,-0.0717,-0.0729,-0.0726,-0.0682,-0.0667,-0.064,-0.0595,-0.0572,-0.0528,-0.0477,-0.0432,-0.0411,-0.0368,-0.034,-0.0313,-0.0335,-0.0337,-0.0339,-0.0342,-0.0307,-0.0307,-0.0308,-0.0308,-0.0308,0,0,-0.0736,-0.0734,-0.0739,-0.0734,-0.0712,-0.0703,-0.067,-0.0653,-0.0633,-0.0573,-0.053,-0.0485,-0.0425,-0.0385,-0.0368,-0.0362,-0.0321,-0.0336,-0.0339,-0.0341,-0.0305,-0.0305,-0.0306,-0.0307,-0.0307,-0.0307,0,0,-0.076,-0.0765,-0.0781,-0.077,-0.0755,-0.0721,-0.0725,-0.0679,-0.065,-0.0608,-0.0556,-0.051,-0.0447,-0.0399,-0.0368,-0.0354,-0.0332,-0.0348,-0.0371,-0.0338,-0.0338,-0.0338,-0.0299,-0.0295,-0.0349,-0.0349,-0.0349,0,-0.0776,-0.0798,-0.0778,-0.079,-0.0788,-0.0737,-0.0747,-0.0703,-0.0643,-0.0624,-0.0603,-0.0498,-0.045,-0.0398,-0.0386,-0.0361,-0.0339,-0.0374,-0.0343,-0.0342,-0.0341,-0.0301,-0.0296,-0.0352,-0.0351,-0.0351,-0.0351,0,-0.0812,-0.0827,-0.0834,-0.0832,-0.0821,-0.082,-0.0776,-0.0745,-0.0706,-0.0663,-0.061,-0.0533,-0.0474,-0.045,-0.0411,-0.038,-0.0365,-0.0353,-0.0347,-0.0345,-0.0302,-0.0296,-0.0355,-0.0354,-0.0354,-0.0353,0,0,-0.0843,-0.0862,-0.0862,-0.0881,-0.0849,-0.0847,-0.0811,-0.0774,-0.0756,-0.0686,-0.0661,-0.0569,-0.0534,-0.0496,-0.0444,-0.0408,-0.0373,-0.0384,-0.0381,-0.0361,-0.03,-0.0223,-0.0208,-0.0366,-0.0365,-0.0365,-0.0272,0,-0.0875,-0.0931,-0.0911,-0.0933,-0.0959,-0.0905,-0.0878,-0.0833,-0.078,-0.0735,-0.0652,-0.0606,-0.0549,-0.0528,-0.048,-0.0398,-0.036,-0.0399,-0.029,-0.0286,-0.0231,-0.0199,-0.0181,-0.0091,-0.0266,-0.0265,-0.0264,0,-0.0917,-0.0948,-0.1006,-0.1011,-0.1015,-0.1006,-0.0973,-0.0942,-0.0857,-0.0816,-0.075,-0.0685,-0.06,-0.0565,-0.0428,-0.046,-0.0388,-0.0326,-0.0321,-0.0225,-0.0197,-0.0119,-0.0073,0.0053,-0.0254,-0.0255,-0.0256,0,-0.0979,-0.1006,-0.1064,-0.1071,-0.1064,-0.1063,-0.104,-0.0974,-0.0953,-0.0874,-0.0845,-0.0739,-0.0676,-0.058,-0.0422,-0.0439,-0.0273,-0.028,-0.0141,-0.0135,-0.0083,-0.0073,0.0085,-0.0199,-0.0199,-0.02,-0.02,0,-0.1038,-0.1072,-0.1102,-0.1135,-0.1176,-0.114,-0.115,-0.1104,-0.1037,-0.0994,-0.0901,-0.083,-0.0679,-0.0554,-0.0439,-0.0247,-0.028,-0.0133,-0.0101,-0.0099,-0.0092,0.0049,0.01,-0.0196,-0.0197,-0.0198,-0.0198,0,-0.111,-0.1129,-0.1196,-0.1215,-0.1218,-0.1254,-0.1231,-0.1222,-0.1149,-0.1088,-0.1064,-0.0897,-0.0714,-0.0552,-0.0363,-0.0251,-0.0004,-0.0026,-0.0024,0.0008,0.0245,0.029,0.0486,0.0562,0.0127,0.013,0.0132,0,-0.1167,-0.1214,-0.1276,-0.1311,-0.1324,-0.1354,-0.1356,-0.1294,-0.1255,-0.1103,-0.1057,-0.0881,-0.0708,-0.0399,-0.0183,0.0035,0.0121,0.0176,0.0156,0.0282,0.0355,0.0378,0.0428,0.0199,0.0202,0.0204,0.0205,0,-0.1259,-0.1281,-0.1332,-0.1408,-0.144,-0.1464,-0.1439,-0.1415,-0.1294,-0.1213,-0.1021,-0.0882,-0.0563,-0.0271,0.001,0.0132,0.0279,0.0227,0.0351,0.0432,0.0473,0.0552,0.0116,0.0224,0.0222,0.0221,0.022,0.0219,-0.1311,-0.1378,-0.1432,-0.1494,-0.1529,-0.1515,-0.1487,-0.1414,-0.1324,-0.1121,-0.0994,-0.0752,-0.0366,0.0048,0.0202,0.0504,0.0463,0.0574,0.062,0.0633,0.0712,0.0333,0.0483,0.0482,0.0482,0.0482,0.0482,0,-0.1363,-0.1426,-0.1499,-0.155,-0.1567,-0.1568,-0.1491,-0.1409,-0.1256,-0.1089,-0.0893,-0.0457,-0.0071,0.0268,0.07,0.0872,0.0884,0.0951,0.0969,0.1001,0.0661,0.0671,0.0877,0.0876,0.0876,0.0876,0.0876,0.0876,-0.1382,-0.1471,-0.1509,-0.1553,-0.1568,-0.1516,-0.1446,-0.1314,-0.1162,-0.0861,-0.0608,-0.0434,0.0074,0.0801,0.1194,0.1214,0.1345,0.1341,0.1426,0.1168,0.1135,0.1104,0.1126,0.1424,0.1424,0.173,0.1733,0.1736]}],[{"header":{"parameterUnit":"m.s-1","parameterCategory":2,"la1":30.2991,"la2":30.254,"lo1":-89.0895,"lo2":-89.0444,"dy":0.0017,"dx":0.0017,"nx":28,"ny":28,"refTime":"2023-10-06T21:00:00:Z","depth":"2","parameterNumber":2,"parameterNumberName":"U-component_of_CURRENTS"},"data":[0,0,0,0,0,0,0,0,0,0,0,0,0,0,0,0,0,0,0,0,0,0,0,0,0,0,0,0,0,0,0,0,0,0,0,0,0,0,0,0,0,0,0,0,0,0,0,0,0,0,0,0,0,0,0,0,0,0,-0.2464,-0.2464,0,-0.2516,-0.2517,-0.2517,-0.2485,-0.2483,-0.2481,-0.248,-0.2424,-0.2424,-0.2424,0,0,0,0,0,0,0,0,0,0,0,0,0,-0.2356,-0.2358,-0.2463,-0.2464,-0.2465,-0.2516,-0.2517,-0.2517,-0.2485,-0.2483,-0.2481,-0.2479,-0.2424,-0.2424,-0.2424,0,0,0,0,0,0,0,0,0,0,0,0,0,-0.2406,-0.2358,-0.2463,-0.2453,-0.2453,-0.2516,-0.2517,-0.2518,-0.2485,-0.2483,-0.248,-0.2478,-0.2424,-0.2424,-0.2424,-0.2474,0,0,-0.2424,-0.2424,0,0,0,0,0,0,0,0,-0.2403,-0.241,-0.2454,-0.2454,-0.2454,-0.249,-0.2458,-0.2497,-0.2486,-0.2475,-0.248,-0.2477,-0.2437,-0.2436,-0.2455,-0.2472,-0.2469,-0.2424,-0.2424,-0.2424,-0.2424,0,0,0,0,0,0,0,-0.24,-0.2408,-0.2486,-0.2455,-0.2455,-0.2453,-0.2458,-0.2466,-0.2468,-0.2475,-0.2473,-0.2477,-0.2436,-0.2455,-0.2453,-0.2468,-0.2424,-0.2424,-0.2424,-0.2424,-0.2512,-0.2515,0,0,0,0,0,0,-0.2393,-0.2405,-0.2484,-0.2487,-0.242,-0.2457,-0.2462,-0.2482,-0.247,-0.2467,-0.2479,-0.2475,-0.2456,-0.2453,-0.245,-0.251,-0.2424,-0.2424,-0.2424,-0.251,-0.2513,-0.2515,0,0,0,0,0,0,-0.2391,-0.24,-0.2482,-0.2445,-0.2455,-0.2461,-0.2484,-0.2484,-0.2502,-0.2474,-0.2468,-0.2496,-0.2454,-0.245,-0.2464,-0.2506,-0.2424,-0.2424,-0.2507,-0.2511,-0.2514,-0.2627,0,0,0,0,0,0,-0.2388,-0.24,-0.241,-0.2445,-0.2456,-0.2529,-0.2486,-0.2487,-0.2508,-0.2504,-0.2487,-0.2479,-0.2451,-0.2464,-0.2464,-0.2505,-0.2424,-0.2504,-0.2509,-0.2513,-0.262,-0.2634,-0.2645,0,0,0,0,0,-0.2384,-0.2419,-0.2411,-0.2419,-0.2472,-0.253,-0.2538,-0.2533,-0.2511,-0.2537,-0.2519,-0.248,-0.2491,-0.2467,-0.2466,-0.2508,-0.2502,-0.2508,-0.2513,-0.2615,-0.2631,-0.2645,0,0,0,0,0,0,-0.2381,-0.242,-0.2411,-0.2455,-0.2489,-0.2524,-0.2559,-0.2547,-0.2559,-0.2557,-0.2512,-0.2505,-0.2533,-0.251,-0.2484,-0.2546,-0.249,-0.2496,-0.2568,-0.2583,-0.2596,-0.2616,-0.2424,0,0,0,0,0,-0.2385,-0.2431,-0.2453,-0.25,-0.252,-0.2541,-0.2562,-0.2565,-0.258,-0.2583,-0.2571,-0.2561,-0.256,-0.256,-0.256,-0.26,-0.2558,-0.2626,-0.2639,-0.2649,-0.2667,-0.2634,-0.2645,-0.2532,-0.2532,-0.2532,0,0,-0.241,-0.2431,-0.2461,-0.2503,-0.2539,-0.257,-0.255,-0.2608,-0.2615,-0.2577,-0.2601,-0.2607,-0.2579,-0.2619,-0.263,-0.2602,-0.2661,-0.2656,-0.2665,-0.2677,-0.2641,-0.2651,-0.2661,-0.2536,-0.2535,-0.2535,0,0,-0.2466,-0.2496,-0.2535,-0.2568,-0.2612,-0.2623,-0.2638,-0.268,-0.2679,-0.2714,-0.2683,-0.2721,-0.2719,-0.2722,-0.2714,-0.28,-0.2727,-0.2797,-0.288,-0.2849,-0.2857,-0.2864,-0.2826,-0.2828,-0.2805,-0.2805,-0.2805,0,-0.2476,-0.2522,-0.256,-0.2595,-0.2625,-0.2642,-0.268,-0.2691,-0.2726,-0.274,-0.2731,-0.2777,-0.277,-0.2801,-0.2844,-0.283,-0.279,-0.2822,-0.2863,-0.2869,-0.2874,-0.2833,-0.2835,-0.2811,-0.281,-0.281,-0.2809,0,-0.2536,-0.2578,-0.2622,-0.2659,-0.27,-0.2756,-0.2769,-0.28,-0.2808,-0.282,-0.2873,-0.289,-0.2909,-0.2931,-0.292,-0.2968,-0.2921,-0.2879,-0.2821,-0.2892,-0.2845,-0.2844,-0.282,-0.2818,-0.2816,-0.2814,0,0,-0.2521,-0.2634,-0.264,-0.2659,-0.2738,-0.2763,-0.2813,-0.2848,-0.2856,-0.2917,-0.2943,-0.301,-0.3036,-0.3033,-0.3033,-0.3047,-0.3071,-0.3,-0.2995,-0.2957,-0.2992,-0.2843,-0.2827,-0.3025,-0.3025,-0.3026,-0.2944,0,-0.2539,-0.261,-0.2665,-0.2724,-0.2762,-0.2813,-0.2853,-0.2894,-0.2918,-0.2949,-0.2998,-0.3026,-0.3057,-0.308,-0.3106,-0.3074,-0.3075,-0.3097,-0.2935,-0.2931,-0.2784,-0.2824,-0.2609,-0.2508,-0.2943,-0.2943,-0.2942,0,-0.2535,-0.2588,-0.2661,-0.2744,-0.2766,-0.2803,-0.286,-0.2895,-0.2958,-0.2983,-0.305,-0.3065,-0.3131,-0.3123,-0.3121,-0.3128,-0.3083,-0.3059,-0.3053,-0.2875,-0.278,-0.2508,-0.2489,-0.294,-0.294,-0.2941,-0.2941,0,-0.2458,-0.256,-0.2613,-0.2647,-0.2755,-0.2791,-0.2842,-0.292,-0.2937,-0.3,-0.3017,-0.3088,-0.3091,-0.3092,-0.3061,-0.3087,-0.3013,-0.3017,-0.284,-0.2827,-0.2595,-0.256,-0.2994,-0.2994,-0.2994,-0.2994,-0.2994,0,-0.2427,-0.2458,-0.258,-0.2601,-0.266,-0.2754,-0.28,-0.2858,-0.2929,-0.2922,-0.3024,-0.3001,-0.3081,-0.3044,-0.3043,-0.2921,-0.2977,-0.2861,-0.2798,-0.2628,-0.2599,-0.2934,-0.2928,-0.2991,-0.2992,-0.2992,-0.2993,0,-0.234,-0.2424,-0.2473,-0.2589,-0.2629,-0.2666,-0.2772,-0.2772,-0.2866,-0.2852,-0.287,-0.2926,-0.2867,-0.2897,-0.2861,-0.2839,-0.2774,-0.2702,-0.2498,-0.2414,-0.2627,-0.2629,-0.2537,-0.2531,-0.2526,-0.2521,-0.2518,0,-0.2307,-0.2326,-0.2442,-0.2455,-0.251,-0.2582,-0.2614,-0.2734,-0.2714,-0.2758,-0.2711,-0.2702,-0.2619,-0.2542,-0.2492,-0.2428,-0.256,-0.2211,-0.224,-0.2633,-0.2582,-0.2591,-0.2599,-0.1981,-0.1974,-0.1967,-0.1962,0,-0.2217,-0.2259,-0.2288,-0.2347,-0.2377,-0.2404,-0.2448,-0.2436,-0.2509,-0.2496,-0.2415,-0.2376,-0.2287,-0.2124,-0.2066,-0.2017,-0.2225,-0.2079,-0.2507,-0.2129,-0.2102,-0.2054,-0.2082,-0.1907,-0.1912,-0.1916,-0.1919,-0.1922,-0.2122,-0.2124,-0.2161,-0.2193,-0.2214,-0.2185,-0.2144,-0.215,-0.2114,-0.2038,-0.208,-0.1958,-0.1946,-0.1739,-0.1648,-0.162,-0.1795,-0.1772,-0.1795,-0.1824,-0.1773,-0.1737,-0.1465,-0.1468,-0.147,-0.1473,-0.1475,0,-0.2004,-0.2004,-0.2002,-0.201,-0.1947,-0.2032,-0.1978,-0.1886,-0.1764,-0.1738,-0.1653,-0.1446,-0.1321,-0.1344,-0.1199,-0.1191,-0.1227,-0.1164,-0.1218,-0.1271,-0.1318,-0.1247,-0.0798,-0.0796,-0.0794,-0.0793,0,0,-0.1934,-0.1877,-0.1876,-0.1742,-0.173,-0.1593,-0.1523,-0.1429,-0.137,-0.1234,-0.1174,-0.1217,-0.1267,-0.1018,-0.0965,-0.0861,-0.1065,-0.0815,-0.1348,-0.1461,-0.1507,-0.1645,-0.159,0,0,0,0,0]},{"header":{"parameterUnit":"m.s-1","parameterCategory":2,"la1":30.2991,"la2":30.254,"lo1":-89.0895,"lo2":-89.0444,"dy":0.0017,"dx":0.0017,"nx":28,"ny":28,"refTime":"2023-10-06T21:00:00:Z","depth":"2","parameterNumber":3,"parameterNumberName":"V-component_of_CURRENTS"},"data":[0,0,0,0,0,0,0,0,0,0,0,0,0,0,0,0,0,0,0,0,0,0,0,0,0,0,0,0,0,0,0,0,0,0,0,0,0,0,0,0,0,0,0,0,0,0,0,0,0,0,0,0,0,0,0,0,0,0,-0.0374,-0.0374,0,-0.0298,-0.0297,-0.0296,-0.0264,-0.0264,-0.0264,-0.0264,-0.0171,-0.0169,-0.0166,0,0,0,0,0,0,0,0,0,0,0,0,0,-0.0371,-0.0372,-0.0375,-0.0374,-0.0372,-0.0298,-0.0297,-0.0296,-0.0264,-0.0264,-0.0264,-0.0264,-0.0172,-0.0169,-0.0166,0,0,0,0,0,0,0,0,0,0,0,0,0,-0.0343,-0.0373,-0.0375,-0.0347,-0.0343,-0.0298,-0.0297,-0.0296,-0.0264,-0.0264,-0.0264,-0.0264,-0.0173,-0.0169,-0.0165,-0.014,0,0,-0.0154,-0.0152,0,0,0,0,0,0,0,0,-0.0345,-0.0343,-0.0352,-0.0349,-0.0345,-0.029,-0.0262,-0.0243,-0.0264,-0.0295,-0.0264,-0.0264,-0.0208,-0.0202,-0.0189,-0.0136,-0.0132,-0.0153,-0.0151,-0.0149,-0.0148,0,0,0,0,0,0,0,-0.0347,-0.0345,-0.0345,-0.0351,-0.0346,-0.0296,-0.0293,-0.0257,-0.0253,-0.0292,-0.029,-0.028,-0.0207,-0.0193,-0.0186,-0.013,-0.0154,-0.015,-0.0148,-0.0146,-0.0064,-0.0064,0,0,0,0,0,0,-0.0361,-0.0348,-0.0348,-0.0343,-0.0344,-0.0297,-0.0294,-0.0308,-0.0253,-0.0245,-0.028,-0.0278,-0.0199,-0.0191,-0.0183,-0.0166,-0.015,-0.0146,-0.0144,-0.0064,-0.0064,-0.0064,0,0,0,0,0,0,-0.0362,-0.0363,-0.0351,-0.0341,-0.0336,-0.0297,-0.0313,-0.0307,-0.0297,-0.0244,-0.0235,-0.0278,-0.0199,-0.0188,-0.0151,-0.0162,-0.0144,-0.0141,-0.0064,-0.0064,-0.0064,-0.0122,0,0,0,0,0,0,-0.0362,-0.0364,-0.0371,-0.0343,-0.0337,-0.0341,-0.0313,-0.0305,-0.029,-0.0288,-0.0239,-0.023,-0.0198,-0.0157,-0.0147,-0.0156,-0.0138,-0.0064,-0.0064,-0.0064,-0.012,-0.0124,-0.0127,0,0,0,0,0,-0.0363,-0.0385,-0.0373,-0.0372,-0.0352,-0.0341,-0.0334,-0.0306,-0.029,-0.0296,-0.0251,-0.0232,-0.0152,-0.0153,-0.0142,-0.015,-0.0064,-0.0064,-0.0064,-0.0118,-0.0123,-0.0127,0,0,0,0,0,0,-0.0378,-0.0383,-0.0369,-0.0388,-0.037,-0.0336,-0.0345,-0.0311,-0.028,-0.0284,-0.0225,-0.0213,-0.019,-0.0158,-0.0161,-0.0127,-0.0107,-0.0105,-0.0153,-0.0157,-0.0161,-0.0188,-0.0135,0,0,0,0,0,-0.0387,-0.0425,-0.0392,-0.0416,-0.0414,-0.0377,-0.0365,-0.0347,-0.0316,-0.0303,-0.027,-0.0228,-0.0181,-0.0159,-0.0128,-0.0101,-0.0071,-0.0101,-0.0105,-0.0108,-0.0123,-0.0082,-0.0084,-0.0065,-0.0065,-0.0065,0,0,-0.0408,-0.041,-0.0434,-0.0424,-0.0418,-0.0405,-0.0373,-0.0379,-0.035,-0.0297,-0.0276,-0.0246,-0.0177,-0.0153,-0.014,-0.0127,-0.0095,-0.0109,-0.0112,-0.0125,-0.0082,-0.0084,-0.0086,-0.0065,-0.0065,-0.0065,0,0,-0.0463,-0.047,-0.0509,-0.0496,-0.0483,-0.0448,-0.045,-0.0425,-0.0402,-0.0367,-0.0322,-0.0297,-0.0234,-0.0192,-0.0153,-0.0156,-0.0121,-0.0153,-0.0188,-0.0148,-0.0149,-0.015,-0.0107,-0.0103,-0.015,-0.015,-0.015,0,-0.0482,-0.0516,-0.0514,-0.0526,-0.0519,-0.0469,-0.0477,-0.0433,-0.0395,-0.0379,-0.0373,-0.0292,-0.0247,-0.0184,-0.0194,-0.0165,-0.0141,-0.0175,-0.0154,-0.0154,-0.0154,-0.0109,-0.0105,-0.0153,-0.0152,-0.0152,-0.0152,0,-0.0541,-0.0562,-0.059,-0.0588,-0.0574,-0.0588,-0.0524,-0.0506,-0.0472,-0.0428,-0.0393,-0.0336,-0.0289,-0.0271,-0.023,-0.0208,-0.019,-0.0168,-0.0146,-0.016,-0.0111,-0.0106,-0.0157,-0.0156,-0.0155,-0.0154,0,0,-0.0602,-0.0629,-0.0637,-0.0641,-0.0612,-0.0605,-0.0569,-0.0519,-0.0494,-0.0455,-0.0431,-0.036,-0.0354,-0.0311,-0.0267,-0.0238,-0.0214,-0.0218,-0.0215,-0.0183,-0.013,-0.0065,-0.0052,-0.0195,-0.0195,-0.0194,-0.0093,0,-0.0646,-0.0702,-0.0683,-0.0699,-0.0719,-0.0661,-0.0632,-0.0579,-0.0526,-0.0492,-0.0422,-0.0389,-0.0351,-0.0349,-0.0309,-0.024,-0.0204,-0.0244,-0.0115,-0.0112,-0.0058,-0.0045,-0.0049,0.0044,-0.0087,-0.0086,-0.0085,0,-0.0695,-0.0725,-0.0782,-0.0771,-0.0773,-0.0761,-0.0718,-0.068,-0.06,-0.0567,-0.0519,-0.0466,-0.0404,-0.0385,-0.0261,-0.0293,-0.0228,-0.0173,-0.0167,-0.0087,-0.0037,0.0037,0.006,-0.0075,-0.0076,-0.0077,-0.0078,0,-0.0759,-0.0777,-0.0832,-0.0833,-0.0816,-0.0819,-0.0793,-0.073,-0.0706,-0.063,-0.0617,-0.0518,-0.048,-0.0387,-0.0257,-0.0271,-0.0125,-0.0116,0.0011,0.0017,0.0049,0.0057,-0.0044,-0.0044,-0.0044,-0.0044,-0.0045,0,-0.0818,-0.0847,-0.0872,-0.0903,-0.0945,-0.0899,-0.0913,-0.0867,-0.0811,-0.0772,-0.068,-0.0622,-0.0487,-0.0373,-0.0268,-0.0094,-0.0117,0.0005,0.0048,0.0032,0.0037,-0.0043,-0.0045,-0.0041,-0.0041,-0.0042,-0.0043,0,-0.0897,-0.0916,-0.097,-0.0983,-0.0994,-0.103,-0.1015,-0.0998,-0.0939,-0.0886,-0.0871,-0.071,-0.0539,-0.0383,-0.0207,-0.0098,0.005,0.0113,0.0091,0.0129,0.0161,0.0156,0.0255,0.0258,0.0261,0.0263,0.0265,0,-0.0947,-0.0993,-0.1062,-0.1098,-0.1115,-0.1148,-0.1162,-0.1099,-0.1054,-0.0913,-0.0876,-0.0715,-0.0549,-0.0257,-0.0048,0.0168,0.0139,0.0278,0.0254,0.016,0.0192,0.0182,0.0174,0.0277,0.0278,0.028,0.0281,0,-0.1027,-0.1066,-0.1116,-0.1214,-0.1251,-0.1265,-0.1254,-0.1237,-0.1114,-0.1037,-0.0859,-0.0728,-0.0424,-0.015,0.012,0.0236,0.0243,0.0316,0.0235,0.0203,0.019,0.0218,0.0207,0.0294,0.0293,0.0292,0.0291,0.0291,-0.1081,-0.1149,-0.123,-0.1304,-0.1342,-0.1336,-0.1313,-0.1232,-0.1152,-0.0946,-0.0829,-0.0577,-0.0349,0.0075,0.025,0.0399,0.0384,0.0419,0.041,0.0401,0.0387,0.0379,0.0516,0.0516,0.0516,0.0516,0.0516,0,-0.1138,-0.1216,-0.1294,-0.1363,-0.1381,-0.1394,-0.1328,-0.1229,-0.1083,-0.0892,-0.069,-0.0386,-0.0098,0.0115,0.0382,0.0529,0.048,0.0534,0.0448,0.0436,0.0425,0.0407,0.0545,0.0545,0.0545,0.0545,0,0,-0.1169,-0.1271,-0.1313,-0.1372,-0.1397,-0.1348,-0.1289,-0.113,-0.0957,-0.0716,-0.0523,-0.0293,-0.0049,0.0147,0.0321,0.0448,0.0392,0.0445,0.0412,0.0279,0.0265,0.0356,0.0317,0,0,0,0,0]}],[{"header":{"parameterUnit":"m.s-1","parameterCategory":2,"la1":30.2991,"la2":30.254,"lo1":-89.0895,"lo2":-89.0444,"dy":0.0017,"dx":0.0017,"nx":28,"ny":28,"refTime":"2023-10-06T21:00:00:Z","depth":"4","parameterNumber":2,"parameterNumberName":"U-component_of_CURRENTS"},"data":[0,0,0,0,0,0,0,0,0,0,0,0,0,0,0,0,0,0,0,0,0,0,0,0,0,0,0,0,0,0,0,0,0,0,0,0,0,0,0,0,0,0,0,0,0,0,0,0,0,0,0,0,0,0,0,0,0,0,-0.1147,-0.1148,0,-0.1179,-0.1179,-0.1179,-0.1202,-0.1202,-0.1202,-0.1203,-0.1228,-0.1228,-0.1228,0,0,0,0,0,0,0,0,0,0,0,0,0,-0.1104,-0.1105,-0.1147,-0.1148,-0.1148,-0.1179,-0.1179,-0.1179,-0.1202,-0.1202,-0.1202,-0.1203,-0.1227,-0.1228,-0.1228,0,0,0,0,0,0,0,0,0,0,0,0,0,-0.1126,-0.1105,-0.1147,-0.1165,-0.1167,-0.1179,-0.1179,-0.1179,-0.1201,-0.1202,-0.1202,-0.1203,-0.1227,-0.1228,-0.1228,-0.122,0,0,-0.123,-0.123,0,0,0,0,0,0,0,0,-0.1125,-0.1128,-0.1162,-0.1164,-0.1166,-0.1188,-0.1173,-0.1193,-0.1201,-0.1186,-0.1203,-0.1203,-0.1215,-0.1216,-0.1218,-0.1222,-0.1223,-0.123,-0.123,-0.123,-0.123,0,0,0,0,0,0,0,-0.1123,-0.1126,-0.1158,-0.1162,-0.1165,-0.117,-0.1174,-0.1177,-0.1195,-0.1188,-0.119,-0.1196,-0.1216,-0.1218,-0.1219,-0.1223,-0.123,-0.123,-0.123,-0.1231,-0.1306,-0.1308,0,0,0,0,0,0,-0.1123,-0.1125,-0.1157,-0.1159,-0.1149,-0.1171,-0.1175,-0.1179,-0.1196,-0.1199,-0.1196,-0.1197,-0.1217,-0.1218,-0.122,-0.1265,-0.123,-0.1231,-0.1231,-0.1304,-0.1306,-0.1308,0,0,0,0,0,0,-0.1122,-0.1125,-0.1156,-0.1144,-0.1149,-0.1171,-0.1176,-0.1179,-0.1201,-0.1202,-0.1205,-0.1216,-0.1217,-0.1219,-0.1257,-0.1264,-0.1231,-0.1231,-0.1302,-0.1305,-0.1307,-0.132,0,0,0,0,0,0,-0.1121,-0.1125,-0.1132,-0.1144,-0.115,-0.1165,-0.1176,-0.118,-0.1204,-0.1206,-0.122,-0.1222,-0.1218,-0.1256,-0.1257,-0.1264,-0.1232,-0.13,-0.1303,-0.1306,-0.1318,-0.1323,-0.1327,0,0,0,0,0,-0.1119,-0.1126,-0.1132,-0.1136,-0.1157,-0.1165,-0.1168,-0.1184,-0.1205,-0.1207,-0.1241,-0.1223,-0.1277,-0.1258,-0.1259,-0.1266,-0.1299,-0.1302,-0.1306,-0.1315,-0.1322,-0.1327,0,0,0,0,0,0,-0.1116,-0.1129,-0.1136,-0.1149,-0.1157,-0.117,-0.1177,-0.1196,-0.1223,-0.1235,-0.1244,-0.1248,-0.128,-0.1282,-0.1261,-0.1302,-0.1285,-0.1289,-0.1291,-0.1297,-0.1302,-0.1297,-0.1232,0,0,0,0,0,-0.1117,-0.1127,-0.1136,-0.1149,-0.115,-0.1168,-0.1178,-0.1192,-0.1216,-0.1229,-0.1256,-0.1281,-0.1292,-0.1304,-0.1316,-0.1339,-0.1352,-0.1347,-0.1352,-0.1356,-0.1356,-0.1406,-0.1415,-0.1321,-0.1321,-0.1321,0,0,-0.1118,-0.1132,-0.1136,-0.115,-0.1157,-0.1177,-0.1175,-0.1192,-0.123,-0.1226,-0.1296,-0.1297,-0.1304,-0.133,-0.1344,-0.1335,-0.139,-0.1361,-0.1364,-0.1362,-0.1411,-0.142,-0.1428,-0.1323,-0.1323,-0.1322,0,0,-0.1126,-0.1136,-0.1142,-0.1155,-0.1173,-0.1189,-0.12,-0.1229,-0.1255,-0.131,-0.1316,-0.1332,-0.1374,-0.137,-0.1372,-0.1415,-0.1413,-0.1421,-0.144,-0.1489,-0.1496,-0.1503,-0.1524,-0.1533,-0.1425,-0.1425,-0.1425,0,-0.1127,-0.1149,-0.1145,-0.1163,-0.1182,-0.1201,-0.122,-0.1252,-0.1304,-0.1332,-0.1341,-0.1402,-0.1391,-0.1412,-0.1415,-0.1421,-0.1448,-0.141,-0.1493,-0.15,-0.1507,-0.1527,-0.1537,-0.1426,-0.1426,-0.1426,-0.1426,0,-0.1145,-0.1168,-0.1174,-0.1209,-0.1221,-0.1245,-0.1277,-0.1322,-0.1367,-0.1399,-0.1449,-0.1447,-0.1487,-0.147,-0.1448,-0.1483,-0.1485,-0.149,-0.1471,-0.1517,-0.1536,-0.1545,-0.1428,-0.1427,-0.1427,-0.1427,0,0,-0.1128,-0.1177,-0.1182,-0.1214,-0.125,-0.127,-0.1327,-0.1377,-0.1439,-0.1481,-0.1548,-0.1536,-0.1545,-0.1548,-0.1525,-0.1535,-0.1578,-0.1528,-0.153,-0.1536,-0.168,-0.153,-0.1526,-0.1607,-0.1609,-0.161,-0.167,0,-0.1145,-0.1188,-0.1211,-0.1274,-0.1292,-0.1334,-0.1395,-0.1446,-0.1496,-0.1575,-0.1571,-0.1624,-0.1577,-0.1591,-0.16,-0.1579,-0.1606,-0.156,-0.1646,-0.1647,-0.1498,-0.1532,-0.1617,-0.1677,-0.1679,-0.1681,-0.1682,0,-0.1146,-0.1183,-0.1226,-0.1314,-0.1328,-0.1387,-0.1479,-0.1532,-0.1618,-0.166,-0.1703,-0.172,-0.1727,-0.1697,-0.1715,-0.1696,-0.1697,-0.1678,-0.1681,-0.1541,-0.1515,-0.1626,-0.1699,-0.1698,-0.1696,-0.1695,-0.1694,0,-0.1115,-0.1197,-0.124,-0.1267,-0.1361,-0.1416,-0.1481,-0.156,-0.1609,-0.1715,-0.1758,-0.1805,-0.1823,-0.1841,-0.1789,-0.1778,-0.1806,-0.1801,-0.1675,-0.1665,-0.1776,-0.1768,-0.185,-0.185,-0.185,-0.185,-0.185,0,-0.11,-0.1144,-0.1249,-0.1276,-0.1353,-0.1425,-0.1516,-0.1586,-0.1687,-0.1739,-0.1804,-0.1831,-0.1862,-0.1871,-0.1842,-0.1766,-0.187,-0.1676,-0.1672,-0.178,-0.1772,-0.1782,-0.1773,-0.1852,-0.1852,-0.1851,-0.1851,0,-0.1024,-0.1093,-0.1158,-0.1288,-0.1328,-0.1381,-0.1513,-0.1576,-0.1689,-0.1756,-0.1791,-0.1866,-0.1861,-0.1867,-0.1876,-0.1807,-0.1768,-0.1731,-0.1833,-0.1835,-0.1587,-0.1579,-0.1604,-0.16,-0.1596,-0.1592,-0.1589,0,-0.0975,-0.1003,-0.1137,-0.1172,-0.1234,-0.1333,-0.1389,-0.1538,-0.1605,-0.1744,-0.1766,-0.1811,-0.1835,-0.1723,-0.1749,-0.1712,-0.1684,-0.1676,-0.1626,-0.1569,-0.1564,-0.1562,-0.1559,-0.1583,-0.1582,-0.1581,-0.158,0,-0.0878,-0.0944,-0.0993,-0.1074,-0.1149,-0.1222,-0.1339,-0.1391,-0.1555,-0.1664,-0.168,-0.1666,-0.1657,-0.1625,-0.1605,-0.1578,-0.168,-0.1633,-0.1641,-0.1595,-0.1543,-0.1542,-0.1544,-0.1566,-0.1568,-0.1569,-0.157,0,-0.0803,-0.0813,-0.0894,-0.0962,-0.1042,-0.1107,-0.1186,-0.1279,-0.1358,-0.1545,-0.1534,-0.1574,-0.1638,-0.1557,-0.1538,-0.1491,-0.1462,-0.1415,-0.1434,-0.145,-0.1364,-0.1274,-0.121,0,0,0,0,0,-0.0713,-0.0732,-0.0779,-0.0858,-0.0944,-0.0994,-0.1146,-0.1243,-0.1419,-0.1382,-0.1466,-0.1446,-0.1401,-0.142,-0.1333,-0.1467,-0.1473,-0.1362,-0.1431,-0.1488,-0.1504,-0.1413,0,0,0,0,0,0,-0.0665,-0.0694,-0.0732,-0.0759,-0.08,-0.0881,-0.0975,-0.1092,-0.1107,-0.1268,-0.1241,-0.1333,-0.1302,-0.14,-0.1286,-0.1294,-0.1305,-0.1395,-0.1391,-0.1479,-0.1494,-0.1507,-0.1418,0,0,0,0,0]},{"header":{"parameterUnit":"m.s-1","parameterCategory":2,"la1":30.2991,"la2":30.254,"lo1":-89.0895,"lo2":-89.0444,"dy":0.0017,"dx":0.0017,"nx":28,"ny":28,"refTime":"2023-10-06T21:00:00:Z","depth":"4","parameterNumber":3,"parameterNumberName":"V-component_of_CURRENTS"},"data":[0,0,0,0,0,0,0,0,0,0,0,0,0,0,0,0,0,0,0,0,0,0,0,0,0,0,0,0,0,0,0,0,0,0,0,0,0,0,0,0,0,0,0,0,0,0,0,0,0,0,0,0,0,0,0,0,0,0,0.0051,0.0051,0,0.0101,0.0102,0.0103,0.014,0.014,0.014,0.014,0.0203,0.0205,0.0206,0,0,0,0,0,0,0,0,0,0,0,0,0,0.0076,0.0075,0.0051,0.0051,0.0052,0.0101,0.0102,0.0103,0.014,0.014,0.014,0.014,0.0203,0.0205,0.0206,0,0,0,0,0,0,0,0,0,0,0,0,0,0.0091,0.0074,0.0051,0.0075,0.0077,0.0101,0.0102,0.0103,0.0139,0.014,0.014,0.014,0.0202,0.0204,0.0207,0.0216,0,0,0.0214,0.0215,0,0,0,0,0,0,0,0,0.009,0.009,0.0071,0.0073,0.0076,0.0113,0.0134,0.0141,0.0139,0.0118,0.014,0.014,0.0173,0.0178,0.0189,0.0219,0.0221,0.0214,0.0215,0.0216,0.0217,0,0,0,0,0,0,0,0.0089,0.0089,0.0072,0.0071,0.0074,0.0114,0.0116,0.0136,0.0145,0.0119,0.0122,0.0125,0.0175,0.0186,0.0191,0.0222,0.0214,0.0216,0.0217,0.0218,0.0272,0.0272,0,0,0,0,0,0,0.0074,0.0087,0.0071,0.0074,0.0082,0.0113,0.0115,0.0102,0.0144,0.015,0.0125,0.0126,0.0182,0.0188,0.0193,0.0205,0.0216,0.0218,0.022,0.0272,0.0272,0.0272,0,0,0,0,0,0,0.0074,0.0071,0.0069,0.0082,0.0084,0.0111,0.0097,0.0103,0.0119,0.0148,0.0155,0.0135,0.0183,0.019,0.0208,0.0208,0.0219,0.0222,0.0271,0.0272,0.0272,0.0231,0,0,0,0,0,0,0.0074,0.0071,0.006,0.008,0.0082,0.0078,0.0097,0.0104,0.0119,0.0122,0.0159,0.0165,0.0184,0.0205,0.0211,0.0211,0.0223,0.0271,0.0272,0.0272,0.0232,0.0229,0.0227,0,0,0,0,0,0.0075,0.0055,0.0059,0.0058,0.0065,0.0077,0.0082,0.0105,0.0119,0.0122,0.0146,0.0164,0.021,0.0206,0.0213,0.0215,0.0271,0.0271,0.0272,0.0233,0.023,0.0227,0,0,0,0,0,0,0.0064,0.0057,0.0062,0.0042,0.0057,0.0083,0.0085,0.0105,0.0127,0.0132,0.0163,0.017,0.0185,0.0207,0.0202,0.0231,0.0244,0.0246,0.0213,0.021,0.0208,0.0203,0.0225,0,0,0,0,0,0.0054,0.0035,0.0046,0.0032,0.0035,0.0062,0.0072,0.0089,0.0109,0.012,0.0141,0.0168,0.019,0.0205,0.0223,0.0241,0.0271,0.0248,0.0245,0.0243,0.0244,0.03,0.0302,0.0272,0.0272,0.0272,0,0,0.0052,0.0041,0.0035,0.0029,0.0041,0.0038,0.0069,0.0079,0.0083,0.0123,0.013,0.0156,0.0192,0.0206,0.0216,0.0226,0.0264,0.0243,0.0241,0.0243,0.03,0.0303,0.0306,0.0272,0.0272,0.0272,0,0,0.0028,0.0021,-0.0002,0.0003,0.0011,0.0025,0.0027,0.0049,0.0065,0.0077,0.0107,0.0135,0.0162,0.0191,0.021,0.0208,0.0245,0.0214,0.0203,0.0256,0.026,0.0263,0.0287,0.0293,0.0218,0.0217,0.0217,0,0.0024,-0.001,-0.0001,-0.0021,-0.002,0.0014,0.0003,0.0022,0.0049,0.0066,0.0071,0.0131,0.0156,0.0195,0.019,0.0203,0.0231,0.0209,0.0253,0.0257,0.0261,0.0286,0.0293,0.0216,0.0216,0.0216,0.0216,0,-0.0017,-0.0039,-0.0051,-0.0072,-0.0064,-0.0069,-0.0044,-0.0033,-0.0011,0.0017,0.0055,0.0096,0.0136,0.0148,0.0166,0.0208,0.0217,0.0239,0.0259,0.0262,0.0288,0.0296,0.0213,0.0213,0.0214,0.0214,0,0,-0.0041,-0.0076,-0.0079,-0.0097,-0.0091,-0.0092,-0.0084,-0.0063,-0.0049,-0.0012,0.0016,0.006,0.0098,0.0122,0.0161,0.0207,0.0247,0.023,0.0234,0.0251,0.0349,0.0312,0.0317,0.0282,0.0283,0.0285,0.0349,0,-0.0075,-0.0133,-0.0131,-0.0163,-0.0184,-0.0152,-0.0148,-0.0117,-0.0081,-0.0048,0.0022,0.0055,0.0086,0.0107,0.0161,0.023,0.0269,0.0226,0.0347,0.035,0.0315,0.0326,0.029,0.0355,0.0357,0.0358,0.0359,0,-0.0118,-0.0151,-0.02,-0.0217,-0.022,-0.0232,-0.021,-0.0198,-0.0133,-0.01,-0.0036,0.0021,0.0095,0.0117,0.0245,0.0218,0.0274,0.0326,0.0331,0.0318,0.0329,0.0358,0.0374,0.0373,0.0372,0.0371,0.037,0,-0.0154,-0.0195,-0.0241,-0.0249,-0.0261,-0.0269,-0.0267,-0.0218,-0.02,-0.013,-0.0104,0.0002,0.0052,0.0152,0.0252,0.0256,0.0386,0.041,0.0427,0.0424,0.0457,0.0453,0.0492,0.0492,0.0492,0.0492,0.0492,0,-0.0195,-0.0224,-0.0269,-0.0295,-0.0328,-0.0316,-0.0326,-0.03,-0.0254,-0.0234,-0.0136,-0.0092,0.0065,0.0159,0.025,0.0355,0.0387,0.0425,0.0445,0.0435,0.0428,0.0461,0.0457,0.0494,0.0494,0.0493,0.0493,0,-0.0211,-0.0248,-0.0302,-0.0341,-0.0352,-0.0374,-0.038,-0.0378,-0.0333,-0.0302,-0.0283,-0.015,-0.0029,0.011,0.0273,0.0341,0.0448,0.0471,0.0426,0.0443,0.0452,0.0445,0.0514,0.0513,0.0512,0.0512,0.0512,0,-0.022,-0.0259,-0.0339,-0.0374,-0.0395,-0.0427,-0.0443,-0.0421,-0.0418,-0.0342,-0.033,-0.0203,-0.0111,0.0102,0.0239,0.041,0.0428,0.0478,0.0489,0.0444,0.0457,0.0451,0.0444,0.0511,0.0511,0.051,0.051,0,-0.022,-0.0265,-0.0313,-0.04,-0.0446,-0.0483,-0.0512,-0.0519,-0.0488,-0.0449,-0.0351,-0.0223,-0.0088,0.0092,0.0216,0.0337,0.0451,0.0473,0.0476,0.0486,0.0442,0.0454,0.0448,0.0508,0.0509,0.0509,0.0509,0,-0.0216,-0.0257,-0.0341,-0.0409,-0.0475,-0.0527,-0.054,-0.0532,-0.0518,-0.044,-0.0413,-0.0246,-0.0138,0.0051,0.0163,0.0281,0.032,0.0362,0.0372,0.0375,0.0314,0.0235,0.0257,0,0,0,0,0,-0.019,-0.0254,-0.0335,-0.0431,-0.0502,-0.0534,-0.0574,-0.0579,-0.0565,-0.0501,-0.0453,-0.0326,-0.0116,-0.0012,0.0101,0.0137,0.0319,0.027,0.0367,0.0498,0.05,0.0448,0,0,0,0,0,0,-0.0188,-0.0263,-0.0331,-0.0428,-0.0491,-0.0561,-0.0588,-0.0581,-0.054,-0.0498,-0.0379,-0.0304,-0.0098,-0.0174,0.0106,0.0141,0.0215,0.0375,0.0377,0.0497,0.0499,0.05,0.0447,0,0,0,0,0]}]]